Location: Mercogliano
(40.9167°N, 14.7333°E)
Time: 14:07:36
(UTC+00:00)

Milstar 3 Cent rocket - Pass Details

Date: 18 September 2020
Orbit: 707 x 5145 km, 28.3° (Epoch: 28 October)

Event Time Altitude Azimuth Distance (km) Brightness Sun altitude
Rises 19:35:06 0° 236° (SW) 3,749 5.9 -28.0°
Reaches altitude 10° 19:38:50 10° 217° (SW) 2,428 4.6 -28.6°
Enters shadow 19:39:35 12° 211° (SSW) 2,207 4.4 -28.7°
